This demonstration page uses our WeatherBlox Daily Observations layout. Learn more.

Left ArrowRight Arrow

36.19886, -115.1175

Hourly Observations for December 6, 2022

Temp ( °F °C ) Dew Point ( °F °C ) Humidity (%) Winds ( mph kmh ) Pressure ( in mb ) Visibility ( mi km ) Precip ( " mm )
12:53 am 00:53 Clear 46 7.8 33 0.6 60 60 WNW 5 7 29.94 1014 10 16 0.00 0.00
1:53 am 01:53 Clear 43 6.1 32 0 65 65 WNW 7 11 29.96 1015 10 16 0.00 0.00
2:53 am 02:53 Clear 43 6.1 31 -0.6 62 62 NW 3 6 29.97 1015 10 16 0.00 0.00
3:53 am 03:53 Clear 42 5.6 31 -0.6 64 64 W 3 6 29.97 1015 10 16 0.00 0.00
4:53 am 04:53 Partly Cloudy 41 5 31 -0.6 67 67 Calm 29.99 1016 10 16 0.00 0.00
5:53 am 05:53 Clear 42 5.6 31 -0.6 64 64 WNW 3 6 30.01 1016 10 16 0.00 0.00
6:53 am 06:53 Sunny 43 6.1 31 -0.6 62 62 NW 8 13 30.02 1017 10 16 0.00 0.00
7:53 am 07:53 Sunny 45 7.2 32 0 60 60 WNW 6 9 30.06 1018 10 16 0.00 0.00
8:53 am 08:53 Sunny 50 10 33 0.6 52 52 Calm 30.06 1018 10 16 0.00 0.00
9:53 am 09:53 Mostly Cloudy 52 11.1 33 0.6 48 48 ESE 3 6 30.07 1018 10 16 0.00 0.00
10:53 am 10:53 Sunny 54 12.2 34 1.1 47 47 undefined N/A 30.05 1018 10 16 0.00 0.00
11:53 am 11:53 Mostly Cloudy 56 13.3 37 2.8 49 49 undefined N/A 30.04 1017 10 16 0.00 0.00
12:53 pm 12:53 Sunny 58 14.4 37 2.8 46 46 undefined N/A 30.02 1017 10 16 0.00 0.00
1:53 pm 13:53 Sunny 58 14.4 35 1.7 42 42 SE 7 11 30.01 1016 10 16 0.00 0.00
2:53 pm 14:53 Sunny 58 14.4 33 0.6 39 39 Calm 30.01 1016 10 16 0.00 0.00
3:53 pm 15:53 Sunny 57 13.9 32 0 38 38 Calm 30.02 1017 10 16 0.00 0.00
4:53 pm 16:53 Clear 56 13.3 32 0 40 40 Calm 30.03 1017 10 16 0.00 0.00
5:53 pm 17:53 Clear 54 12.2 32 0 43 43 Calm 30.04 1017 10 16 0.00 0.00
6:53 pm 18:53 Clear 53 11.7 32 0 44 44 Calm 30.04 1017 10 16 0.00 0.00
7:53 pm 19:53 Clear 51 10.6 33 0.6 50 50 NW 3 6 30.05 1018 10 16 0.00 0.00
8:53 pm 20:53 Clear 48 8.9 33 0.6 56 56 NNW 6 9 30.06 1018 10 16 0.00 0.00
9:53 pm 21:53 Clear 47 8.3 33 0.6 58 58 WNW 6 9 30.06 1018 10 16 0.00 0.00
10:53 pm 22:53 Clear 45 7.2 33 0.6 63 63 WNW 6 9 30.07 1018 10 16 0.00 0.00
11:53 pm 23:53 Clear 44 6.7 32 0 62 62 NW 5 7 30.07 1018 10 16 0.00 0.00

Powered by AerisWeather